| time (UTC) | temp C | wind direction | speed KPH | gust KPH | rain 1hr cm | rain 24hr cm | rain mn cm | humidity % | barometer mb |
| 20260903224549 | 28 | 117 | 11.3 | 19.3 | 0.00 | 3.05 | 0.00 | 83 | 1011.2 |
| 20260903224100 | 28 | 111 | 11.3 | 19.3 | 0.00 | 3.05 | 0.00 | 82 | 1011.2 |
| 20260903223123 | 28 | 136 | 11.3 | 19.3 | 0.00 | 3.05 | 0.00 | 82 | 1011.1 |
| 20260903222611 | 28 | 131 | 8.0 | 19.3 | 0.00 | 3.05 | 0.00 | 82 | 1011.1 |
| 20260903222122 | 27 | 160 | 8.0 | 17.7 | 0.00 | 3.05 | 0.00 | 83 | 1011.2 |
| 20260903221542 | 27 | 125 | 12.9 | 17.7 | 0.00 | 3.05 | 0.00 | 83 | 1011.3 |
| 20260903221053 | 28 | 104 | 9.7 | 17.7 | 0.00 | 3.05 | 0.00 | 83 | 1011.3 |
| 20260903220116 | 28 | 136 | 8.0 | 22.5 | 0.00 | 3.05 | 0.00 | 83 | 1011.4 |
| 20260903215627 | 28 | 135 | 12.9 | 22.5 | 0.00 | 3.05 | 0.00 | 82 | 1011.5 |
| 20260903215130 | 28 | 170 | 11.3 | 19.3 | 0.00 | 3.05 | 0.00 | 82 | 1011.5 |
| 20260903214556 | 28 | 142 | 11.3 | 19.3 | 0.00 | 3.05 | 0.00 | 82 | 1011.6 |
| 20260903214046 | 28 | 186 | 12.9 | 17.7 | 0.00 | 3.05 | 0.00 | 82 | 1011.8 |
| 20260903213105 | 28 | 137 | 11.3 | 24.1 | 0.00 | 3.05 | 0.00 | 82 | 1011.9 |
| 20260903212608 | 28 | 139 | 12.9 | 24.1 | 0.00 | 3.05 | 0.00 | 82 | 1012.0 |
| 20260903212114 | 28 | 155 | 16.1 | 22.5 | 0.00 | 3.05 | 0.00 | 82 | 1012.0 |
| 20260903211545 | 28 | 144 | 12.9 | 25.7 | 0.00 | 3.05 | 0.00 | 82 | 1012.1 |
| 20260903211050 | 28 | 140 | 14.5 | 25.7 | 0.00 | 3.05 | 0.00 | 82 | 1012.1 |
| 20260903210122 | 28 | 115 | 17.7 | 25.7 | 0.00 | 3.05 | 0.00 | 82 | 1012.2 |
| 20260903205601 | 28 | 155 | 19.3 | 27.4 | 0.00 | 3.05 | 0.00 | 83 | 1012.3 |
| 20260903204628 | 28 | 141 | 11.3 | 25.7 | 0.00 | 3.05 | 0.00 | 82 | 1012.2 |
| 20260903204119 | 28 | 160 | 14.5 | 24.1 | 0.00 | 3.05 | 0.00 | 81 | 1012.0 |
| 20260903203630 | 28 | 156 | 14.5 | 22.5 | 0.00 | 3.05 | 0.00 | 81 | 1012.1 |
| 20260903203051 | 28 | 150 | 11.3 | 20.9 | 0.00 | 3.05 | 0.00 | 80 | 1012.0 |
| 20260903202603 | 27 | 150 | 12.9 | 17.7 | 0.00 | 3.05 | 0.00 | 79 | 1012.0 |
| 20260903201603 | 27 | 111 | 11.3 | 20.9 | 0.00 | 3.05 | 0.00 | 80 | 1012.1 |
| 20260903201108 | 27 | 146 | 14.5 | 22.5 | 0.00 | 3.05 | 0.00 | 80 | 1012.2 |
| 20260903200126 | 27 | 150 | 12.9 | 30.6 | 0.00 | 3.05 | 0.00 | 78 | 1012.4 |
| 20260903195642 | 27 | 130 | 19.3 | 30.6 | 0.00 | 3.05 | 0.00 | 77 | 1012.6 |
| 20260903195132 | 27 | 135 | 12.9 | 24.1 | 0.00 | 3.05 | 0.00 | 79 | 1012.7 |
| 20260903194552 | 28 | 136 | 11.3 | 24.1 | 0.00 | 3.05 | 0.00 | 80 | 1012.7 |
| 20260903194104 | 28 | 135 | 8.0 | 30.6 | 0.00 | 3.05 | 0.00 | 82 | 1012.6 |
| 20260903193105 | 29 | 73 | 19.3 | 33.8 | 0.00 | 3.05 | 0.00 | 82 | 1012.5 |
| 20260903192617 | 30 | 76 | 17.7 | 32.2 | 0.00 | 3.05 | 0.00 | 79 | 1012.5 |
| 20260903192122 | 30 | 75 | 20.9 | 29.0 | 0.00 | 3.05 | 0.00 | 79 | 1012.4 |
| 20260903191547 | 30 | 76 | 17.7 | 29.0 | 0.00 | 3.05 | 0.00 | 79 | 1012.4 |
| 20260903191103 | 31 | 71 | 20.9 | 29.0 | 0.00 | 3.05 | 0.00 | 79 | 1012.4 |
| 20260903190124 | 31 | 74 | 16.1 | 22.5 | 0.00 | 3.05 | 0.00 | 78 | 1012.4 |
| 20260903185629 | 31 | 51 | 6.4 | 19.3 | 0.00 | 3.05 | 0.00 | 78 | 1012.4 |
| 20260903185115 | 31 | 24 | 11.3 | 19.3 | 0.00 | 3.05 | 0.00 | 78 | 1012.3 |
| 20260903184546 | 31 | 44 | 9.7 | 19.3 | 0.00 | 3.05 | 0.00 | 78 | 1012.5 |
| 20260903184051 | 31 | 28 | 6.4 | 17.7 | 0.00 | 3.05 | 0.00 | 78 | 1012.6 |
| 20260903183120 | 32 | 59 | 14.5 | 19.3 | 0.00 | 3.05 | 0.00 | 76 | 1012.5 |
| 20260903182604 | 32 | 69 | 8.0 | 14.5 | 0.00 | 3.05 | 0.00 | 75 | 1012.4 |
| 20260903182115 | 32 | 340 | 4.8 | 12.9 | 0.00 | 3.05 | 0.00 | 72 | 1012.5 |
| 20260903181540 | 32 | 355 | 4.8 | 9.7 | 0.00 | 3.05 | 0.00 | 73 | 1012.6 |
| 20260903181154 | 32 | 287 | 4.8 | 12.9 | 0.00 | 3.05 | 0.00 | 72 | 1012.6 |
| 20260903180545 | 32 | 239 | 4.8 | 12.9 | 0.00 | 3.05 | 0.00 | 73 | 1012.9 |
| 20260903180151 | 32 | 258 | 4.8 | 9.7 | 0.00 | 3.05 | 0.00 | 76 | 1013.0 |
| 20260903175620 | 31 | 26 | 0.0 | 8.0 | 0.00 | 3.05 | 0.00 | 78 | 1013.1 |
| 20260903175133 | 31 | 26 | 3.2 | 12.9 | 0.00 | 3.05 | 0.00 | 78 | 1013.1 |
| 20260903174552 | 31 | 35 | 4.8 | 17.7 | 0.00 | 3.05 | 0.00 | 79 | 1013.2 |
| 20260903174037 | 31 | 34 | 6.4 | 14.5 | 0.00 | 3.05 | 0.00 | 79 | 1013.2 |
| 20260903173629 | 31 | 51 | 8.0 | 14.5 | 0.00 | 3.05 | 0.00 | 80 | 1013.3 |
| 20260903173055 | 31 | 59 | 4.8 | 12.9 | 0.00 | 3.05 | 0.00 | 81 | 1013.4 |
| 20260903172539 | 31 | 54 | 6.4 | 12.9 | 0.00 | 3.05 | 0.00 | 81 | 1013.6 |
| 20260903171613 | 31 | 51 | 1.6 | 14.5 | 0.00 | 3.05 | 0.00 | 81 | 1013.8 |
| 20260903171056 | 30 | 78 | 3.2 | 14.5 | 0.00 | 3.05 | 0.00 | 82 | 1013.9 |
| 20260903170054 | 30 | 71 | 3.2 | 17.7 | 0.00 | 3.05 | 0.00 | 82 | 1013.8 |
| 20260903165605 | 30 | 84 | 8.0 | 16.1 | 0.00 | 3.05 | 0.00 | 83 | 1013.7 |
| 20260903164622 | 30 | 66 | 11.3 | 16.1 | 0.00 | 3.05 | 0.00 | 82 | 1013.7 |
| 20260903164122 | 30 | 69 | 8.0 | 14.5 | 0.00 | 3.05 | 0.00 | 82 | 1013.8 |
| 20260903163632 | 31 | 76 | 4.8 | 12.9 | 0.00 | 3.05 | 0.00 | 81 | 1013.8 |
| 20260903163037 | 31 | 221 | 6.4 | 16.1 | 0.00 | 3.05 | 0.00 | 76 | 1013.7 |
| 20260903162545 | 31 | 184 | 11.3 | 22.5 | 0.00 | 3.05 | 0.00 | 76 | 1013.8 |
| 20260903161614 | 30 | 161 | 9.7 | 20.9 | 0.00 | 3.05 | 0.00 | 78 | 1013.8 |
| 20260903161119 | 30 | 215 | 12.9 | 29.0 | 0.00 | 3.05 | 0.00 | 77 | 1013.8 |
| 20260903160630 | 30 | 192 | 20.9 | 29.0 | 0.00 | 3.05 | 0.00 | 77 | 1013.6 |
| 20260903160050 | 30 | 184 | 14.5 | 20.9 | 0.00 | 3.05 | 0.00 | 78 | 1013.7 |
| 20260903155601 | 30 | 224 | 12.9 | 19.3 | 0.00 | 3.05 | 0.00 | 81 | 1013.7 |
| 20260903154624 | 30 | 209 | 16.1 | 24.1 | 0.00 | 3.05 | 0.00 | 81 | 1013.8 |
| 20260903154039 | 30 | 200 | 12.9 | 22.5 | 0.00 | 3.05 | 0.00 | 82 | 1013.7 |
| 20260903153544 | 29 | 189 | 17.7 | 20.9 | 0.00 | 3.05 | 0.00 | 83 | 1013.7 |
| 20260903153155 | 29 | 173 | 12.9 | 19.3 | 0.00 | 3.05 | 0.00 | 85 | 1013.8 |
| 20260903152544 | 29 | 184 | 12.9 | 20.9 | 0.00 | 3.05 | 0.00 | 86 | 1013.8 |
| 20260903151606 | 28 | 178 | 16.1 | 22.5 | 0.00 | 3.05 | 0.00 | 86 | 1013.8 |
| 20260903151112 | 28 | 161 | 8.0 | 22.5 | 0.00 | 3.05 | 0.00 | 87 | 1013.7 |
| 20260903150141 | 28 | 176 | 14.5 | 20.9 | 0.00 | 3.05 | 0.00 | 88 | 1013.6 |
| 20260903145625 | 28 | 193 | 11.3 | 22.5 | 0.00 | 3.05 | 0.00 | 88 | 1013.7 |
| 20260903145134 | 28 | 205 | 16.1 | 20.9 | 0.00 | 3.05 | 0.00 | 89 | 1013.5 |
| 20260903144545 | 28 | 196 | 9.7 | 17.7 | 0.00 | 3.05 | 0.00 | 90 | 1013.4 |
| 20260903144048 | 28 | 197 | 12.9 | 17.7 | 0.00 | 3.05 | 0.00 | 90 | 1013.4 |
| 20260903143111 | 28 | 198 | 9.7 | 22.5 | 0.00 | 3.05 | 0.00 | 91 | 1013.5 |
| 20260903142602 | 27 | 219 | 12.9 | 16.1 | 0.00 | 3.05 | 0.00 | 91 | 1013.5 |
| 20260903141604 | 27 | 186 | 8.0 | 16.1 | 0.00 | 3.05 | 0.00 | 92 | 1013.5 |
| 20260903141108 | 27 | 180 | 6.4 | 12.9 | 0.00 | 3.05 | 0.00 | 93 | 1013.4 |
| 20260903140619 | 27 | 160 | 6.4 | 12.9 | 0.00 | 3.05 | 0.00 | 93 | 1013.5 |
| 20260903140050 | 27 | 188 | 8.0 | 14.5 | 0.00 | 3.05 | 0.00 | 93 | 1013.4 |
| 20260903135554 | 27 | 191 | 8.0 | 12.9 | 0.00 | 3.05 | 0.00 | 93 | 1013.4 |
| 20260903134556 | 27 | 190 | 4.8 | 9.7 | 0.00 | 3.05 | 0.00 | 93 | 1013.3 |
| 20260903134108 | 27 | 192 | 1.6 | 11.3 | 0.00 | 3.05 | 0.00 | 93 | 1013.4 |
| 20260903133609 | 27 | 155 | 6.4 | 14.5 | 0.00 | 3.05 | 0.00 | 93 | 1013.2 |
| 20260903133040 | 27 | 186 | 8.0 | 14.5 | 0.00 | 3.05 | 0.00 | 93 | 1013.2 |
| 20260903132548 | 27 | 188 | 9.7 | 14.5 | 0.00 | 3.05 | 0.00 | 93 | 1013.1 |
| 20260903131610 | 27 | 188 | 8.0 | 11.3 | 0.00 | 3.05 | 0.00 | 94 | 1013.1 |
| 20260903131055 | 26 | 191 | 8.0 | 14.5 | 0.00 | 3.05 | 0.00 | 94 | 1013.0 |
| 20260903130604 | 26 | 198 | 9.7 | 14.5 | 0.00 | 3.05 | 0.00 | 94 | 1012.9 |
| 20260903130151 | 26 | 186 | 9.7 | 12.9 | 0.00 | 3.05 | 0.00 | 94 | 1012.9 |
| 20260903125538 | 26 | 196 | 9.7 | 16.1 | 0.00 | 3.05 | 0.00 | 94 | 1012.8 |
| 20260903125150 | 26 | 201 | 9.7 | 14.5 | 0.00 | 3.05 | 0.00 | 94 | 1012.7 |
| 20260903124553 | 26 | 197 | 11.3 | 14.5 | 0.00 | 3.05 | 0.00 | 94 | 1012.6 |
| 20260903124050 | 26 | 200 | 9.7 | 12.9 | 0.00 | 3.05 | 0.00 | 94 | 1012.7 |
| 20260903123049 | 26 | 178 | 6.4 | 9.7 | 0.00 | 3.05 | 0.00 | 94 | 1012.7 |
| 20260903122601 | 26 | 186 | 6.4 | 11.3 | 0.00 | 3.05 | 0.00 | 94 | 1012.7 |
| 20260903121542 | 26 | 182 | 6.4 | 9.7 | 0.00 | 3.05 | 0.00 | 94 | 1012.6 |
| 20260903121046 | 26 | 165 | 4.8 | 11.3 | 0.00 | 3.05 | 0.00 | 94 | 1012.5 |
| 20260903120116 | 26 | 171 | 4.8 | 11.3 | 0.00 | 3.05 | 0.00 | 94 | 1012.6 |
| 20260903115621 | 26 | 166 | 8.0 | 11.3 | 0.00 | 3.05 | 0.00 | 94 | 1012.5 |
| 20260903115132 | 26 | 188 | 8.0 | 11.3 | 0.00 | 3.05 | 0.00 | 94 | 1012.5 |
| 20260903114553 | 26 | 170 | 6.4 | 9.7 | 0.00 | 3.05 | 0.00 | 94 | 1012.4 |
| 20260903114045 | 26 | 161 | 8.0 | 9.7 | 0.00 | 3.05 | 0.00 | 94 | 1012.4 |
| 20260903113106 | 26 | 178 | 8.0 | 12.9 | 0.00 | 3.05 | 0.00 | 94 | 1012.4 |
| 20260903112612 | 26 | 178 | 8.0 | 12.9 | 0.00 | 3.05 | 0.00 | 94 | 1012.3 |
| 20260903112122 | 26 | 166 | 9.7 | 12.9 | 0.00 | 3.05 | 0.00 | 94 | 1012.4 |
| 20260903111554 | 26 | 171 | 8.0 | 9.7 | 0.00 | 3.05 | 0.00 | 94 | 1012.3 |
| 20260903111055 | 26 | 169 | 6.4 | 9.7 | 0.00 | 3.05 | 0.00 | 94 | 1012.3 |
| 20260903110124 | 26 | 165 | 9.7 | 12.9 | 0.00 | 3.05 | 0.00 | 94 | 1012.3 |
| 20260903105608 | 26 | 183 | 6.4 | 8.0 | 0.00 | 3.05 | 0.00 | 94 | 1012.3 |
| 20260903104628 | 26 | 184 | 4.8 | 9.7 | 0.00 | 3.05 | 0.00 | 94 | 1012.2 |
| 20260903104039 | 26 | 186 | 6.4 | 12.9 | 0.00 | 3.05 | 0.00 | 94 | 1012.2 |
| 20260903103106 | 26 | 180 | 6.4 | 12.9 | 0.00 | 3.05 | 0.00 | 94 | 1012.2 |
| 20260903102618 | 26 | 190 | 6.4 | 11.3 | 0.00 | 3.05 | 0.00 | 94 | 1012.2 |
| 20260903102122 | 26 | 187 | 8.0 | 14.5 | 0.00 | 3.05 | 0.00 | 94 | 1012.2 |
| 20260903101550 | 26 | 181 | 6.4 | 11.3 | 0.00 | 3.05 | 0.00 | 94 | 1012.2 |
| 20260903101102 | 26 | 185 | 8.0 | 11.3 | 0.00 | 3.05 | 0.00 | 94 | 1012.3 |
| 20260903100103 | 26 | 182 | 6.4 | 11.3 | 0.00 | 3.05 | 0.00 | 94 | 1012.3 |
| 20260903095608 | 26 | 187 | 9.7 | 11.3 | 0.00 | 3.05 | 0.00 | 94 | 1012.2 |
| 20260903095120 | 26 | 178 | 4.8 | 8.0 | 0.00 | 3.05 | 0.00 | 94 | 1012.3 |
| 20260903094042 | 26 | 179 | 3.2 | 6.4 | 0.00 | 3.05 | 0.00 | 94 | 1012.4 |
| 20260903093105 | 26 | 178 | 3.2 | 8.0 | 0.00 | 3.05 | 0.00 | 94 | 1012.4 |
| 20260903092617 | 26 | 179 | 3.2 | 8.0 | 0.00 | 3.05 | 0.00 | 93 | 1012.4 |
| 20260903091618 | 26 | 168 | 6.4 | 14.5 | 0.00 | 3.05 | 0.00 | 93 | 1012.4 |
| 20260903091130 | 26 | 168 | 9.7 | 14.5 | 0.00 | 3.05 | 0.00 | 93 | 1012.4 |
| 20260903090635 | 26 | 157 | 8.0 | 11.3 | 0.00 | 3.05 | 0.00 | 93 | 1012.4 |
| 20260903090105 | 26 | 171 | 6.4 | 9.7 | 0.00 | 3.05 | 0.00 | 93 | 1012.4 |
| 20260903085614 | 26 | 180 | 6.4 | 9.7 | 0.00 | 3.05 | 0.00 | 93 | 1012.3 |
| 20260903084553 | 26 | 182 | 6.4 | 11.3 | 0.00 | 3.05 | 0.00 | 93 | 1012.3 |
| 20260903084058 | 26 | 182 | 8.0 | 12.9 | 0.00 | 3.05 | 0.00 | 93 | 1012.2 |
| 20260903083057 | 26 | 179 | 6.4 | 12.9 | 0.00 | 3.05 | 0.00 | 93 | 1012.2 |
| 20260903082609 | 26 | 182 | 8.0 | 14.5 | 0.00 | 3.05 | 0.00 | 93 | 1012.2 |
| 20260903082113 | 26 | 182 | 8.0 | 14.5 | 0.00 | 3.05 | 0.00 | 93 | 1012.2 |
| 20260903081544 | 26 | 157 | 9.7 | 14.5 | 0.00 | 3.05 | 0.00 | 93 | 1012.2 |
| 20260903081055 | 26 | 169 | 9.7 | 14.5 | 0.00 | 3.05 | 0.00 | 93 | 1012.2 |
| 20260903080118 | 26 | 159 | 9.7 | 14.5 | 0.00 | 3.05 | 0.00 | 92 | 1012.1 |
| 20260903075608 | 26 | 188 | 9.7 | 16.1 | 0.00 | 3.05 | 0.00 | 92 | 1012.1 |
| 20260903075107 | 26 | 167 | 12.9 | 17.7 | 0.00 | 3.05 | 0.00 | 92 | 1012.0 |
| 20260903074538 | 26 | 180 | 12.9 | 17.7 | 0.00 | 3.05 | 0.00 | 92 | 1012.0 |
| 20260903074044 | 26 | 173 | 12.9 | 19.3 | 0.00 | 3.05 | 0.00 | 92 | 1012.0 |
| 20260903073113 | 26 | 170 | 12.9 | 16.1 | 0.00 | 3.05 | 0.00 | 92 | 1011.9 |
| 20260903072616 | 26 | 194 | 11.3 | 16.1 | 0.00 | 3.05 | 0.00 | 92 | 1011.9 |
| 20260903072132 | 26 | 180 | 12.9 | 19.3 | 0.00 | 3.05 | 0.00 | 92 | 1011.8 |
| 20260903071552 | 26 | 194 | 11.3 | 19.3 | 0.00 | 3.05 | 0.00 | 91 | 1011.9 |
| 20260903071103 | 26 | 179 | 12.9 | 19.3 | 0.00 | 3.05 | 0.00 | 91 | 1011.9 |
| 20260903070105 | 27 | 191 | 14.5 | 22.5 | 0.00 | 3.05 | 0.00 | 91 | 1011.9 |
| 20260903065554 | 27 | 169 | 17.7 | 25.7 | 0.00 | 3.05 | 0.00 | 91 | 1012.0 |
| 20260903065044 | 27 | 163 | 17.7 | 27.4 | 0.00 | 3.05 | 0.00 | 91 | 1012.0 |
| 20260903064537 | 27 | 168 | 19.3 | 27.4 | 0.00 | 3.05 | 0.00 | 91 | 1012.1 |
| 20260903064048 | 27 | 162 | 14.5 | 22.5 | 0.00 | 3.05 | 0.00 | 91 | 1012.1 |
| 20260903063558 | 27 | 170 | 14.5 | 20.9 | 0.00 | 3.05 | 0.00 | 91 | 1012.1 |
| 20260903063050 | 26 | 178 | 14.5 | 22.5 | 0.00 | 3.05 | 0.00 | 92 | 1012.2 |
| 20260903062540 | 26 | 159 | 16.1 | 24.1 | 0.00 | 3.05 | 0.00 | 92 | 1012.2 |
| 20260903062050 | 26 | 180 | 11.3 | 19.3 | 0.00 | 3.05 | 0.00 | 93 | 1012.2 |
| 20260903061543 | 26 | 165 | 11.3 | 22.5 | 0.00 | 3.05 | 0.00 | 93 | 1012.2 |
| 20260903061038 | 26 | 155 | 14.5 | 22.5 | 0.00 | 3.05 | 0.00 | 93 | 1012.2 |
| 20260903060550 | 26 | 149 | 12.9 | 22.5 | 0.00 | 3.05 | 0.00 | 93 | 1012.2 |
| 20260903060043 | 26 | 157 | 14.5 | 19.3 | 0.00 | 3.05 | 0.00 | 93 | 1012.2 |
| 20260903055554 | 26 | 160 | 12.9 | 20.9 | 0.00 | 3.05 | 0.00 | 93 | 1012.2 |
| 20260903055039 | 25 | 161 | 16.1 | 20.9 | 0.00 | 3.05 | 0.00 | 93 | 1012.2 |
| 20260903054535 | 25 | 148 | 11.3 | 20.9 | 0.00 | 3.05 | 0.00 | 93 | 1012.2 |
| 20260903054046 | 25 | 149 | 14.5 | 20.9 | 0.00 | 3.05 | 0.00 | 93 | 1012.2 |
| 20260903053536 | 25 | 141 | 12.9 | 17.7 | 0.00 | 3.05 | 0.00 | 92 | 1012.3 |
| 20260903053055 | 25 | 154 | 11.3 | 19.3 | 0.00 | 3.05 | 0.00 | 92 | 1012.3 |
| 20260903052543 | 25 | 146 | 12.9 | 19.3 | 0.00 | 3.05 | 0.00 | 92 | 1012.3 |
| 20260903052052 | 25 | 126 | 12.9 | 19.3 | 0.00 | 3.05 | 0.00 | 92 | 1012.3 |
| 20260903051551 | 25 | 150 | 12.9 | 19.3 | 0.00 | 3.05 | 0.00 | 92 | 1012.3 |
| 20260903051102 | 25 | 159 | 14.5 | 19.3 | 0.00 | 3.05 | 0.00 | 92 | 1012.2 |
| 20260903050544 | 25 | 154 | 14.5 | 25.7 | 0.00 | 3.05 | 0.00 | 91 | 1012.2 |
| 20260903050104 | 25 | 153 | 17.7 | 25.7 | 0.00 | 3.05 | 0.00 | 91 | 1012.2 |
| 20260903045610 | 25 | 153 | 19.3 | 25.7 | 0.00 | 3.05 | 3.05 | 91 | 1012.3 |
| 20260903045109 | 25 | 133 | 17.7 | 25.7 | 0.00 | 3.05 | 3.05 | 91 | 1012.4 |
| 20260903044541 | 25 | 173 | 19.3 | 24.1 | 0.00 | 3.05 | 3.05 | 91 | 1012.4 |
| 20260903044053 | 25 | 137 | 16.1 | 24.1 | 0.00 | 3.05 | 3.05 | 91 | 1012.4 |
| 20260903043115 | 25 | 147 | 14.5 | 22.5 | 0.03 | 3.05 | 3.05 | 91 | 1012.7 |
| 20260903042558 | 25 | 164 | 16.1 | 25.7 | 0.03 | 3.05 | 3.05 | 91 | 1012.8 |
| 20260903041632 | 25 | 144 | 14.5 | 19.3 | 0.03 | 3.05 | 3.05 | 90 | 1012.8 |
| 20260903041137 | 25 | 153 | 14.5 | 17.7 | 0.03 | 3.05 | 3.05 | 90 | 1012.8 |
| 20260903040629 | 25 | 178 | 12.9 | 16.1 | 0.03 | 3.05 | 3.05 | 89 | 1012.9 |
| 20260903040054 | 25 | 155 | 9.7 | 24.1 | 0.05 | 3.05 | 3.05 | 89 | 1013.0 |
| 20260903035559 | 25 | 176 | 12.9 | 24.1 | 0.05 | 3.05 | 3.05 | 89 | 1013.0 |
| 20260903035151 | 26 | 169 | 11.3 | 19.3 | 0.05 | 3.05 | 3.05 | 88 | 1013.0 |
| 20260903034558 | 26 | 180 | 12.9 | 20.9 | 0.05 | 3.05 | 3.05 | 90 | 1013.2 |
| 20260903034103 | 26 | 190 | 12.9 | 17.7 | 0.05 | 3.05 | 3.05 | 91 | 1013.4 |
| 20260903033127 | 26 | 167 | 12.9 | 17.7 | 0.05 | 3.05 | 3.05 | 93 | 1013.2 |
| 20260903032541 | 26 | 188 | 12.9 | 17.7 | 0.03 | 3.02 | 3.02 | 93 | 1013.2 |
| 20260903032132 | 26 | 185 | 9.7 | 17.7 | 0.03 | 3.02 | 3.02 | 92 | 1013.2 |
| 20260903031551 | 26 | 171 | 11.3 | 17.7 | 0.03 | 3.02 | 3.02 | 92 | 1013.1 |
| 20260903031102 | 26 | 157 | 11.3 | 17.7 | 0.03 | 3.02 | 3.02 | 92 | 1013.3 |
| 20260903030042 | 26 | 139 | 8.0 | 16.1 | 0.03 | 3.02 | 3.02 | 91 | 1013.4 |
| 20260903025552 | 26 | 137 | 9.7 | 16.1 | 0.03 | 3.02 | 3.02 | 91 | 1013.3 |
| 20260903024614 | 26 | 142 | 8.0 | 12.9 | 0.05 | 3.00 | 3.00 | 90 | 1013.0 |
| 20260903024106 | 26 | 134 | 6.4 | 14.5 | 0.38 | 3.00 | 3.00 | 89 | 1012.8 |
| 20260903023125 | 26 | 90 | 4.8 | 8.0 | 1.65 | 3.00 | 3.00 | 87 | 1013.0 |
| 20260903022627 | 27 | 223 | 0.0 | 4.8 | 2.21 | 3.00 | 3.00 | 86 | 1012.8 |
| 20260903022122 | 27 | 224 | 0.0 | 1.6 | 2.90 | 3.00 | 3.00 | 86 | 1012.7 |
| 20260903021549 | 27 | 223 | 0.0 | 1.6 | 3.00 | 3.00 | 3.00 | 85 | 1012.7 |
| 20260903021054 | 27 | 223 | 0.0 | 6.4 | 3.00 | 3.00 | 3.00 | 85 | 1012.5 |
| 20260903020123 | 26 | 223 | 3.2 | 14.5 | 3.00 | 3.00 | 3.00 | 88 | 1012.4 |
| 20260903015605 | 26 | 209 | 6.4 | 19.3 | 3.00 | 3.00 | 3.00 | 88 | 1012.1 |
| 20260903014627 | 26 | 113 | 8.0 | 19.3 | 3.00 | 3.00 | 3.00 | 87 | 1011.8 |
| 20260903014043 | 26 | 91 | 12.9 | 19.3 | 2.77 | 2.77 | 2.77 | 86 | 1012.0 |
| 20260903013100 | 28 | 135 | 3.2 | 16.1 | 1.93 | 1.93 | 1.93 | 79 | 1011.9 |
| 20260903012547 | 29 | 318 | 0.0 | 19.3 | 1.35 | 1.35 | 1.35 | 75 | 1011.7 |
| 20260903011608 | 31 | 337 | 0.0 | 14.5 | 0.10 | 0.10 | 0.10 | 68 | 1011.1 |
| 20260903011120 | 31 | 77 | 4.8 | 17.7 | 0.00 | 0.00 | 0.00 | 67 | 1010.7 |
| 20260903010122 | 31 | 71 | 16.1 | 27.4 | 0.00 | 0.00 | 0.00 | 65 | 1010.4 |
| 20260903005634 | 32 | 66 | 17.7 | 27.4 | 0.00 | 0.00 | 0.00 | 62 | 1010.1 |
| 20260903005113 | 33 | 67 | 11.3 | 22.5 | 0.00 | 0.00 | 0.00 | 57 | 1010.0 |
| 20260903004545 | 35 | 78 | 11.3 | 19.3 | 0.00 | 0.00 | 0.00 | 55 | 1009.9 |
| 20260903004049 | 35 | 188 | 1.6 | 11.3 | 0.00 | 0.00 | 0.00 | 53 | 1009.8 |
| 20260903003119 | 35 | 191 | 6.4 | 14.5 | 0.00 | 0.00 | 0.00 | 53 | 1009.6 |
| 20260903002624 | 35 | 198 | 8.0 | 16.1 | 0.00 | 0.00 | 0.00 | 53 | 1009.7 |
| 20260903001624 | 35 | 194 | 12.9 | 14.5 | 0.00 | 0.00 | 0.00 | 52 | 1009.6 |
| 20260903001036 | 35 | 150 | 9.7 | 14.5 | 0.00 | 0.00 | 0.00 | 51 | 1009.5 |
| 20260903000058 | 36 | 160 | 6.4 | 12.9 | 0.00 | 0.00 | 0.00 | 48 | 1009.5 |
| 20260902235613 | 36 | 200 | 3.2 | 8.0 | 0.00 | 0.00 | 0.00 | 48 | 1009.6 |
| 20260902235108 | 36 | 200 | 4.8 | 8.0 | 0.00 | 0.00 | 0.00 | 48 | 1009.6 |
| 20260902234540 | 36 | 211 | 3.2 | 6.4 | 0.00 | 0.00 | 0.00 | 47 | 1009.7 |
| 20260902234051 | 36 | 213 | 3.2 | 8.0 | 0.00 | 0.00 | 0.00 | 47 | 1009.7 |
| 20260902233113 | 36 | 217 | 1.6 | 8.0 | 0.00 | 0.00 | 0.00 | 48 | 1009.6 |
| 20260902232556 | 36 | 121 | 1.6 | 16.1 | 0.00 | 0.00 | 0.00 | 48 | 1009.6 |
| 20260902231621 | 36 | 200 | 3.2 | 12.9 | 0.00 | 0.00 | 0.00 | 47 | 1009.7 |
| 20260902231044 | 36 | 167 | 3.2 | 8.0 | 0.00 | 0.00 | 0.00 | 48 | 1009.7 |
| 20260902230114 | 36 | 115 | 4.8 | 9.7 | 0.00 | 0.00 | 0.00 | 48 | 1009.7 |
| 20260902225604 | 36 | 124 | 1.6 | 9.7 | 0.00 | 0.00 | 0.00 | 49 | 1009.8 |